Regional Weather Roundup
Issued by NWS Nashville, TN

Home | Current Version | Previous Version | Text Only | Print | Product List | Glossary On
Versions: 1 2 3 4 5 6 7 8 9 10 11 12 13 14 15 16 17 18 19 20 21 22 23 24 25 26 27 28 29 30 31 32 33 34 35 36 37 38 39 40 41 42 43 44 45 46 47 48 49 50
000
ASUS44 KOHX 042110
RWROHX
MIDDLE TENNESSEE HOURLY WEATHER ROUNDUP
NATIONAL WEATHER SERVICE NASHVILLE TN
400 PM CDT SAT JUL 04 2015

NOTE: "FAIR" INDICATES FEW OR NO CLOUDS BELOW 12,000 FEET WITH
NO SIGNIFICANT WEATHER AND/OR OBSTRUCTIONS TO VISIBILITY.

* THESE REPORTS ARE NOT UNDER NWS QUALITY CONTROL AND MAY NOT
  REPORT WEATHER SUCH AS PRECIPITATION AND FOG.


TNZ005>011-023>034-057-059-062>066-078-080-042200
...NORTHERN MIDDLE TENNESSEE...

CITY           SKY/WX    TMP DP  RH WIND       PRES   REMARKS
CLARKSVILLE    CLOUDY    80  69  69 N7        29.96F
CROSSVILLE     CLOUDY    75  66  73 SW7       30.06S
GALLATIN       PTSUNNY   80  32  17 S3        29.99
DICKSON        CLOUDY    79  70  73 CALM      29.98F
NASHVILLE      CLOUDY    78  71  79 CALM      29.98F
PORTLAND       CLOUDY   N/A N/A N/A CALM      29.98F
ROCKWOOD       CLOUDY    74  69  84 SW6       30.05
SMYRNA         CLOUDY    77  72  83 CALM      29.99F
SPARTA         PTSUNNY   81  73  78 SW5       30.00F
$$
TNZ056-058-060-061-075>077-079-093>097-042200
...SOUTHERN MIDDLE TENNESSEE...

CITY           SKY/WX    TMP DP  RH WIND       PRES   REMARKS
COLUMBIA       PTSUNNY   75  72  88 CALM      29.97S
MCMINNVILLE    MOSUNNY   81  73  78 VRB6      30.01F
SHELBYVILLE    PTSUNNY   82  73  74 CALM        N/A
TULLAHOMA      PTSUNNY   75  66  73 S3        30.03S
WINCHESTER     PTSUNNY   81  70  69 S5        30.01F
$$


...KEY TO REMARKS...
VSB - VISIBILITY IN MILES
WCI - WIND CHILL INDEX
HX  - HEAT INDEX



USA.gov is the U.S. government's official web portal to all federal, state and local government web resources and services.